TOMSK-TPU 120 (42910 NORAD) Tracking and Keplerian Element Data

This shows tracking and keplerian element data for the satellite.

Feedback or suggestion? Click here.




ElementValue
Catalog42910
NameTOMSK-TPU 120
Epoch Orbit9537
Epoch Day108.66433528
Epoch Year2019
RAAN246.1341
Inclination51.6351
Eccentricity0.0005228
Argument of Perigee289.0806
Mean Anonmoly167.8594
Mean Motion15.78542245
Decay Rate0.00047992
L11 42910U 98067MZ 19108.66433528 .00047992 00000-0 27203-3 0 9990
L22 42910 51.6351 246.1341 0005228 289.0806 167.8594 15.78542245 95377

Live tracking and technical data element details for TOMSK-TPU 120 (NORAD 42910). TOMSK-TPU 120 can be tracked NOW for your location showing map with azimuth and elevation plus other details from your city location.

Track the satellite on the map from your city or location and see movement details for azimuth, elevation, latitude, longitude, range, height, and movement on the map or in text.







IsCatalogInMostPopularTable: catalog: 42910, numindb: 239
Update: records affected: 1



GetName: 42910 TOMSK-TPU 120

Hit Count: updated at: Sat, 20 Apr 2019 20:24:04 GMT